Weather History for Dyersburg, TN

Change the Weather History Date:

Saturday, January 25, 2014

  Actual Average Record
Temperature  
Mean Temperature 40 °F -  
Max Temperature 51 °F 45 °F 62 °F (2005)
Min Temperature 30 °F 30 °F 15 °F (2003)
Degree Days  
Heating Degree Days 24    
Moisture  
Dew Point 13 °F    
Average Humidity 34    
Maximum Humidity 45    
Minimum Humidity 28    
Precipitation  
Precipitation 0.00 in - - ()
Sea Level Pressure  
Sea Level Pressure 29.95 in    
Wind  
Wind Speed 13 mph (West)    
Max Wind Speed 23 mph    
Max Gust Speed 31 mph    
Visibility 10 miles    
Events      
Averages and records for this station are not official NWS values.
T = Trace of Precipitation, MM = Missing Value Source: NWS Daily Summary

Daily Weather History Graph

Daily Weather History Graph

Search for Another Location

Airport:

Trip Planner

Search our weather history database for the weather conditions in past years. The results will help you decide how hot, cold, wet, or windy it might be!

Date:

Astronomy

Jan. 25, 2014 Rise Set
Actual Time 7:03 AM CST 5:17 PM CST
Civil Twilight 6:35 AM CST 5:44 PM CST
Nautical Twilight 6:04 AM CST 6:15 PM CST
Astronomical Twilight 5:34 AM CST 6:46 PM CST
Moon 1:35 AM CST (1/25) 12:17 PM CST (1/25)
Length of Visible Light 11h 08m
Length of Day
10h 14m
Waning Crescent, 34% of the Moon is Illuminated
Jan 25
Waning Crescent
Jan 30
New
Feb 6
First Quarter
Feb 14
Full
Feb 22
Last Quarter

Hourly Weather History & Observations

Time (CST) Temp. Windchill Dew Point Humidity Pressure Visibility Wind Dir Wind Speed Gust Speed Precip Events Conditions
12:15 AM 30.2 °F 20.8 °F 1.4 °F 29% 30.07 in 10.0 mi SW 11.5 mph 19.6 mph N/A   Scattered Clouds
12:35 AM 30.2 °F 18.9 °F 1.4 °F 29% 30.05 in 10.0 mi SSW 16.1 mph 31.1 mph N/A   Scattered Clouds
12:55 AM 32.0 °F 20.5 °F 3.2 °F 30% 30.04 in 10.0 mi SW 18.4 mph 26.5 mph N/A   Mostly Cloudy
1:15 AM 32.0 °F 20.5 °F 3.2 °F 30% 30.03 in 10.0 mi SW 18.4 mph 24.2 mph N/A   Overcast
1:35 AM 33.8 °F 23.2 °F 3.2 °F 28% 30.02 in 10.0 mi SW 17.3 mph 24.2 mph N/A   Overcast
1:55 AM 33.8 °F 23.2 °F 3.2 °F 28% 30.01 in 10.0 mi SW 17.3 mph 24.2 mph N/A   Overcast
2:15 AM 33.8 °F 23.2 °F 5.0 °F 30% 30.00 in 10.0 mi SW 17.3 mph 27.6 mph N/A   Overcast
2:35 AM 33.8 °F 24.8 °F 5.0 °F 30% 29.98 in 10.0 mi SW 12.7 mph 26.5 mph N/A   Overcast
2:55 AM 32.0 °F 20.8 °F 5.0 °F 32% 29.98 in 10.0 mi SW 17.3 mph 31.1 mph N/A   Overcast
3:15 AM 33.8 °F 23.2 °F 5.0 °F 30% 29.97 in 10.0 mi SW 17.3 mph 28.8 mph N/A   Overcast
3:35 AM 33.8 °F 23.5 °F 6.8 °F 32% 29.96 in 10.0 mi SW 16.1 mph 24.2 mph N/A   Overcast
3:55 AM 32.0 °F 21.6 °F 6.8 °F 35% 29.95 in 10.0 mi SW 15.0 mph 20.7 mph N/A   Overcast
4:15 AM 32.0 °F 22.1 °F 6.8 °F 35% 29.93 in 10.0 mi SW 13.8 mph 20.7 mph N/A   Overcast
4:35 AM 32.0 °F 22.1 °F 8.6 °F 38% 29.91 in 10.0 mi SW 13.8 mph 21.9 mph N/A   Overcast
4:55 AM 33.8 °F 23.9 °F 6.8 °F 32% 29.91 in 10.0 mi SW 15.0 mph 20.7 mph N/A   Overcast
5:15 AM 33.8 °F 23.5 °F 6.8 °F 32% 29.90 in 10.0 mi SW 16.1 mph 24.2 mph N/A   Overcast
5:35 AM 33.8 °F 23.2 °F 6.8 °F 32% 29.90 in 10.0 mi SW 17.3 mph 25.3 mph N/A   Overcast
5:55 AM 33.8 °F 22.8 °F 6.8 °F 32% 29.91 in 10.0 mi WSW 18.4 mph 28.8 mph N/A   Overcast
6:15 AM 33.8 °F 22.5 °F 6.8 °F 32% 29.90 in 10.0 mi SW 19.6 mph 27.6 mph N/A   Overcast
6:35 AM 33.8 °F 23.5 °F 8.6 °F 35% 29.90 in 10.0 mi SW 16.1 mph 23.0 mph N/A   Overcast
6:55 AM 33.8 °F 23.5 °F 8.6 °F 35% 29.91 in 10.0 mi SW 16.1 mph 23.0 mph N/A   Overcast
7:15 AM 33.8 °F 24.3 °F 8.6 °F 35% 29.92 in 10.0 mi SW 13.8 mph 21.9 mph N/A   Overcast
7:35 AM 33.8 °F 23.5 °F 8.6 °F 35% 29.92 in 10.0 mi WSW 16.1 mph 27.6 mph N/A   Overcast
7:55 AM 33.8 °F 23.5 °F 8.6 °F 35% 29.92 in 10.0 mi WSW 16.1 mph 26.5 mph N/A   Mostly Cloudy
8:15 AM 33.8 °F 23.2 °F 8.6 °F 35% 29.92 in 10.0 mi WSW 17.3 mph 24.2 mph N/A   Clear
8:35 AM 35.6 °F 25.5 °F 10.4 °F 35% 29.92 in 10.0 mi WSW 17.3 mph 25.3 mph N/A   Partly Cloudy
8:55 AM 37.4 °F 28.9 °F 10.4 °F 33% 29.92 in 10.0 mi WSW 13.8 mph 24.2 mph N/A   Partly Cloudy
9:15 AM 37.4 °F 26.4 °F 12.2 °F 36% 29.92 in 10.0 mi WSW 23.0 mph 27.6 mph N/A   Clear
9:35 AM 39.2 °F 31.2 °F 12.2 °F 33% 29.94 in 10.0 mi West 13.8 mph 25.3 mph N/A   Clear
9:55 AM 41.0 °F 32.5 °F 14.0 °F 33% 29.93 in 10.0 mi WSW 17.3 mph 24.2 mph N/A   Partly Cloudy
10:15 AM 42.8 °F 35.1 °F 15.8 °F 34% 29.94 in 10.0 mi WSW 16.1 mph 26.5 mph N/A   Scattered Clouds
10:35 AM 44.6 °F 37.2 °F 17.6 °F 34% 29.93 in 10.0 mi West 17.3 mph 25.3 mph N/A   Clear
10:55 AM 46.4 °F 39.8 °F 17.6 °F 32% 29.93 in 10.0 mi West 16.1 mph 25.3 mph N/A   Clear
11:15 AM 48.2 °F - 19.4 °F 32% 29.92 in 10.0 mi West 16.1 mph 24.2 mph N/A   Clear
11:35 AM 48.2 °F - 21.2 °F 34% 29.92 in 10.0 mi West 16.1 mph 26.5 mph N/A   Clear
11:55 AM 50.0 °F - 21.2 °F 32% 29.92 in 10.0 mi West 13.8 mph 21.9 mph N/A   Clear
12:15 PM 51.8 °F - 24.8 °F 35% 29.92 in 10.0 mi WNW 12.7 mph 17.3 mph N/A   Clear
12:35 PM 50.0 °F - 23.0 °F 35% 29.90 in 10.0 mi WNW 12.7 mph 19.6 mph N/A   Clear
12:55 PM 50.0 °F - 21.2 °F 32% 29.90 in 10.0 mi WNW 12.7 mph 17.3 mph N/A   Clear
1:15 PM 51.8 °F - 23.0 °F 33% 29.89 in 10.0 mi WNW 11.5 mph 17.3 mph N/A   Clear
1:35 PM 51.8 °F - 21.2 °F 30% 29.89 in 10.0 mi West 11.5 mph 16.1 mph N/A   Clear
1:55 PM 51.8 °F - 21.2 °F 30% 29.89 in 10.0 mi West 13.8 mph 20.7 mph N/A   Clear
2:15 PM 51.8 °F - 21.2 °F 30% 29.89 in 10.0 mi West 15.0 mph 21.9 mph N/A   Clear
2:35 PM 51.8 °F - 23.0 °F 33% 29.89 in 10.0 mi West 12.7 mph 19.6 mph N/A   Clear
2:55 PM 51.8 °F - 23.0 °F 33% 29.89 in 10.0 mi West 15.0 mph 19.6 mph N/A   Partly Cloudy
3:15 PM 51.8 °F - 23.0 °F 33% 29.90 in 10.0 mi WSW 12.7 mph - N/A   Partly Cloudy
3:35 PM 50.0 °F - 21.2 °F 32% 29.91 in 10.0 mi West 11.5 mph - N/A   Partly Cloudy
3:55 PM 50.0 °F - 23.0 °F 35% 29.92 in 10.0 mi West 11.5 mph 16.1 mph N/A   Mostly Cloudy
4:15 PM 51.8 °F - 24.8 °F 35% 29.93 in 10.0 mi WNW 5.8 mph - N/A   Overcast
4:35 PM 50.0 °F - 23.0 °F 35% 29.93 in 10.0 mi NNW 11.5 mph 16.1 mph N/A   Scattered Clouds
4:55 PM 48.2 °F - 21.2 °F 34% 29.94 in 10.0 mi NW 6.9 mph - N/A   Partly Cloudy
5:15 PM 48.2 °F - 21.2 °F 34% 29.94 in 10.0 mi NNW 4.6 mph - N/A   Partly Cloudy
5:35 PM 48.2 °F - 21.2 °F 34% 29.96 in 10.0 mi NW 5.8 mph - N/A   Partly Cloudy
5:55 PM 46.4 °F 41.9 °F 21.2 °F 37% 29.97 in 10.0 mi NW 9.2 mph - N/A   Clear
6:15 PM 46.4 °F 42.4 °F 21.2 °F 37% 29.98 in 10.0 mi NW 8.1 mph - N/A   Partly Cloudy
6:35 PM 44.6 °F 41.4 °F 19.4 °F 37% 29.99 in 10.0 mi NW 5.8 mph - N/A   Clear
6:55 PM 44.6 °F 40.2 °F 19.4 °F 37% 29.99 in 10.0 mi NNW 8.1 mph - N/A   Clear
7:15 PM 42.8 °F 39.3 °F 19.4 °F 39% 30.00 in 10.0 mi NW 5.8 mph - N/A   Clear
7:35 PM 42.8 °F 40.1 °F 19.4 °F 39% 30.00 in 10.0 mi WNW 4.6 mph - N/A   Clear
7:55 PM 41.0 °F 38.0 °F 19.4 °F 42% 30.00 in 10.0 mi WNW 4.6 mph - N/A   Clear
8:15 PM 39.2 °F 35.0 °F 17.6 °F 42% 30.01 in 10.0 mi NNW 5.8 mph - N/A   Clear
8:35 PM 37.4 °F 32.8 °F 17.6 °F 45% 30.01 in 10.0 mi NNW 5.8 mph - N/A   Clear
8:55 PM 39.2 °F 35.9 °F 17.6 °F 42% 30.02 in 10.0 mi North 4.6 mph - N/A   Clear
9:15 PM 37.4 °F 32.1 °F 15.8 °F 41% 30.02 in 10.0 mi NNE 6.9 mph - N/A   Clear
9:35 PM 37.4 °F 32.8 °F 10.4 °F 33% 30.02 in 10.0 mi NNE 5.8 mph - N/A   Clear
9:55 PM 37.4 °F - 6.8 °F 28% 30.02 in 10.0 mi Calm Calm - N/A   Clear
10:15 PM 33.8 °F - 6.8 °F 32% 30.02 in 10.0 mi Calm Calm - N/A   Clear
10:35 PM 35.6 °F 32.8 °F 6.8 °F 30% 30.03 in 10.0 mi ENE 3.5 mph - N/A   Clear
10:55 PM 33.8 °F 30.8 °F 8.6 °F 35% 30.02 in 10.0 mi ENE 3.5 mph - N/A   Clear
11:15 PM 33.8 °F 30.8 °F 8.6 °F 35% 30.02 in 10.0 mi East 3.5 mph - N/A   Mostly Cloudy
11:35 PM 33.8 °F - 6.8 °F 32% 30.00 in 10.0 mi Calm Calm - N/A   Scattered Clouds
11:55 PM 30.2 °F - 6.8 °F 37% 30.00 in 10.0 mi Calm Calm - N/A   Clear